Zakynthos, Greece

6:28 AM EET on December 15, 2017 (GMT +0200)
Dionysios Solomos

Weather History for LGZA - October, 2017

Change the Weather History Date:

Thursday, October 12, 2017

  Actual Average Record
Temperature  
Mean Temperature 64 °F -  
Max Temperature 73 °F 70 °F 82 °F (2001)
Min Temperature 55 °F 58 °F 55 °F (2003)
Degree Days  
Heating Degree Days 1    
Growing Degree Days 14 (Base 50)    
Moisture  
Dew Point 56 °F    
Average Humidity 73    
Maximum Humidity 100    
Minimum Humidity 44    
Precipitation  
Precipitation 0.00 in 0.20 in - ()
Sea Level Pressure  
Sea Level Pressure 30.19 in    
Wind  
Wind Speed 3 mph ()    
Max Wind Speed 7 mph    
Max Gust Speed -    
Visibility 6.2 miles    
Events      
Averages and records for this station are not official NWS values.
T = Trace of Precipitation, MM = Missing Value Source: Averaged Metar Reports

Daily Weather History Graph

Daily Weather History Graph

Search for Another Location

Airport or City:

Trip Planner

Search our weather history database for the weather conditions in past years. The results will help you decide how hot, cold, wet, or windy it might be!

Date:

Astronomy

Oct. 12, 2017 Rise Set
Actual Time 7:41 AM EEST 7:03 PM EEST
Civil Twilight 7:15 AM EEST 7:29 PM EEST
Nautical Twilight 6:45 AM EEST 7:59 PM EEST
Astronomical Twilight 6:14 AM EEST 8:30 PM EEST
Moon No Moon Rise 2:32 PM EEST (10/12)
Length of Visible Light 12h 13m
Length of Day
11h 21m
Waning Gibbous, 52% of the Moon is Illuminated
Oct 12
Waning Gibbous
Oct 12
Last Quarter
Oct 19
New
Oct 28
First Quarter
Nov 4
Full

Hourly Weather History & Observations

Time (EEST) Temp. Dew Point Humidity Pressure Visibility Wind Dir Wind Speed Gust Speed Precip Events Conditions
4:20 AM 57.2 °F 57.2 °F 100% 30.15 in - Variable 3.5 mph - N/A   Clear
4:50 AM 57.2 °F 57.2 °F 100% 30.18 in - Variable 3.5 mph - N/A   Clear
5:20 AM 57.2 °F 57.2 °F 100% 30.15 in - Variable 2.3 mph - N/A   Clear
5:50 AM 57.2 °F 55.4 °F 94% 30.18 in - Variable 2.3 mph - N/A   Clear
6:20 AM 57.2 °F 55.4 °F 94% 30.18 in - Variable 2.3 mph - N/A   Clear
6:50 AM 57.2 °F 55.4 °F 94% 30.18 in - Variable 2.3 mph - N/A   Clear
7:20 AM 55.4 °F 53.6 °F 94% 30.18 in 6.2 mi Variable 2.3 mph - N/A   Partly Cloudy
7:50 AM 57.2 °F 51.8 °F 82% 30.18 in 6.2 mi Variable 3.5 mph - N/A   Partly Cloudy
8:20 AM 60.8 °F 59.0 °F 94% 30.21 in 6.2 mi NW 5.8 mph - N/A   Partly Cloudy
8:50 AM 60.8 °F 57.2 °F 88% 30.21 in 6.2 mi Variable 3.5 mph - N/A   Partly Cloudy
9:20 AM 62.6 °F 57.2 °F 82% 30.21 in 6.2 mi Variable 3.5 mph - N/A   Partly Cloudy
9:50 AM 62.6 °F 59.0 °F 88% 30.21 in 6.2 mi Variable 4.6 mph - N/A   Partly Cloudy
10:20 AM 69.8 °F 64.4 °F 83% 30.21 in 6.2 mi NNE 5.8 mph - N/A   Partly Cloudy
10:50 AM 69.8 °F 64.4 °F 83% 30.24 in 6.2 mi North 5.8 mph - N/A   Partly Cloudy
11:20 AM 69.8 °F 64.4 °F 83% 30.24 in 6.2 mi NNE 5.8 mph - N/A   Partly Cloudy
11:50 AM 69.8 °F 60.8 °F 73% 30.24 in 6.2 mi NNE 5.8 mph - N/A   Partly Cloudy
12:20 PM 69.8 °F 60.8 °F 73% 30.24 in 6.2 mi NNE 5.8 mph - N/A   Partly Cloudy
12:50 PM 73.4 °F 59.0 °F 61% 30.24 in 6.2 mi NNE 5.8 mph - N/A   Partly Cloudy
1:20 PM 73.4 °F 59.0 °F 61% 30.21 in 6.2 mi NE 5.8 mph - N/A   Partly Cloudy
1:50 PM 73.4 °F 55.4 °F 53% 30.21 in 6.2 mi NNE 5.8 mph - N/A   Partly Cloudy
2:20 PM 73.4 °F 55.4 °F 53% 30.21 in 6.2 mi NNE 5.8 mph - N/A   Partly Cloudy
3:20 PM 73.4 °F 53.6 °F 50% 30.18 in 6.2 mi NE 5.8 mph - N/A   Partly Cloudy
3:50 PM 73.4 °F 55.4 °F 53% 30.18 in 6.2 mi NE 5.8 mph - N/A   Partly Cloudy
4:20 PM 73.4 °F 55.4 °F 53% 30.18 in 6.2 mi ENE 5.8 mph - N/A   Partly Cloudy
4:50 PM 73.4 °F 50.0 °F 44% 30.18 in 6.2 mi North 6.9 mph - N/A   Partly Cloudy
5:20 PM 73.4 °F 50.0 °F 44% 30.18 in 6.2 mi NNW 6.9 mph - N/A   Partly Cloudy
5:50 PM 71.6 °F 53.6 °F 53% 30.18 in 6.2 mi NW 4.6 mph - N/A   Partly Cloudy
6:20 PM 71.6 °F 53.6 °F 53% 30.18 in 6.2 mi Variable 2.3 mph - N/A   Partly Cloudy
6:50 PM 69.8 °F 53.6 °F 56% 30.18 in - Calm Calm - N/A   Clear
7:20 PM 68.0 °F 55.4 °F 64% 30.18 in - Calm Calm - N/A   Clear
7:50 PM 68.0 °F 55.4 °F 64% 30.18 in - Calm Calm - N/A   Clear
8:50 PM 66.2 °F 53.6 °F 64% 30.18 in - Calm Calm - N/A   Clear
9:20 PM 66.2 °F 53.6 °F 64% 30.18 in - Calm Calm - N/A   Clear